GW4674 Weather Reports


time (UTC)temp
F
wind
direction
speed
knots
gust
knots
rain 1hr
in
rain 24hr
in
rain mn
in
humidity
%
barometer
mb
20260507210437 60 12 3.5 3.5 0.00 0.18 0.18 34 1013.7
20260507205934 60 184 0.9 1.7 0.00 0.18 0.18 40 1013.7
20260507205432 64 238 1.7 2.6 0.00 0.18 0.18 35 1013.6
20260507204928 65 314 1.7 2.6 0.00 0.18 0.18 34 1013.6
20260507204424 63 218 0.0 4.3 0.00 0.18 0.18 35 1013.6
20260507203922 63 226 2.6 7.0 0.00 0.18 0.18 32 1013.4
20260507203420 63 205 0.9 2.6 0.00 0.18 0.18 35 1013.7
20260507202916 63 230 3.5 3.5 0.00 0.18 0.18 38 1013.5
20260507202412 64 211 2.6 4.3 0.00 0.18 0.18 33 1013.6
20260507201908 65 239 1.7 4.3 0.00 0.18 0.18 34 1013.6
20260507201403 63 296 0.9 3.5 0.00 0.18 0.18 33 1013.6
20260507200900 63 316 2.6 6.1 0.00 0.18 0.18 33 1013.6
20260507200356 63 293 1.7 3.5 0.00 0.18 0.18 33 1013.7
20260507195852 64 211 1.7 3.5 0.00 0.18 0.18 36 1013.6
20260507195350 62 19 1.7 2.6 0.00 0.18 0.18 33 1013.7
20260507194842 62 22 1.7 4.3 0.00 0.18 0.18 33 1013.9
20260507194338 65 301 0.0 3.5 0.00 0.18 0.18 34 1014.0
20260507193834 62 356 3.5 7.0 0.00 0.18 0.18 34 1013.8
20260507193332 64 15 1.7 3.5 0.00 0.18 0.18 32 1013.8
20260507192827 64 264 1.7 4.3 0.00 0.18 0.18 36 1014.0
20260507192324 62 198 0.9 4.3 0.00 0.18 0.18 36 1014.0
20260507191820 65 5 0.9 3.5 0.00 0.18 0.18 35 1014.1
20260507191311 64 302 1.7 4.3 0.00 0.18 0.18 31 1014.2
20260507190808 64 261 1.7 5.2 0.00 0.18 0.18 33 1014.2
20260507190307 60 228 1.7 6.1 0.00 0.18 0.18 34 1014.2
20260507185805 62 4 1.7 5.2 0.00 0.18 0.18 37 1014.4
20260507185305 63 19 2.6 5.2 0.00 0.18 0.18 34 1014.6
20260507184758 62 0 2.6 4.3 0.00 0.18 0.18 38 1014.5
20260507184257 61 347 2.6 3.5 0.00 0.18 0.18 34 1014.6
20260507183753 62 7 4.3 4.3 0.00 0.18 0.18 33 1014.9
20260507183250 64 243 3.5 4.3 0.00 0.18 0.18 37 1014.6
20260507182748 64 322 1.7 3.5 0.00 0.18 0.18 34 1014.5
20260507182248 62 223 2.6 3.5 0.00 0.18 0.18 33 1014.7
20260507181745 61 12 1.7 4.3 0.00 0.18 0.18 34 1014.7
20260507181241 61 237 1.7 2.6 0.00 0.18 0.18 37 1014.7
20260507180737 62 213 2.6 5.2 0.00 0.18 0.18 34 1014.9
20260507180235 59 16 3.5 5.2 0.00 0.18 0.18 34 1014.9
20260507175730 62 226 3.5 4.3 0.00 0.18 0.18 36 1015.0
20260507175227 60 15 3.5 5.2 0.00 0.18 0.18 34 1015.0
20260507174725 58 6 1.7 3.5 0.00 0.18 0.18 35 1015.0
20260507174222 58 0 3.5 7.0 0.00 0.18 0.18 35 1015.1
20260507173720 59 6 4.3 6.1 0.00 0.18 0.18 36 1015.2
20260507173216 58 354 1.7 3.5 0.00 0.18 0.18 38 1015.2
20260507172713 58 34 1.7 5.2 0.00 0.18 0.18 35 1015.3
20260507172210 59 260 0.9 6.1 0.00 0.18 0.18 43 1015.6
20260507171704 60 209 2.6 5.2 0.00 0.18 0.18 37 1015.4
20260507171202 58 205 0.0 3.5 0.00 0.18 0.18 42 1015.4
20260507170659 59 346 0.9 4.3 0.00 0.18 0.18 35 1015.9
20260507170156 62 240 3.5 5.2 0.00 0.18 0.18 36 1015.8
20260507165651 57 266 1.7 5.2 0.00 0.18 0.18 38 1016.0
20260507165148 59 84 0.9 6.1 0.00 0.18 0.18 35 1016.0
20260507164643 60 243 0.0 5.2 0.00 0.18 0.18 39 1015.8
20260507164141 59 337 1.7 4.3 0.00 0.18 0.18 36 1015.9
20260507163638 61 234 3.5 5.2 0.00 0.18 0.18 39 1016.1
20260507163136 57 209 1.7 3.5 0.00 0.18 0.18 40 1016.1
20260507162631 57 340 2.6 5.2 0.00 0.18 0.18 36 1016.3
20260507162128 56 314 1.7 6.1 0.00 0.18 0.18 38 1016.2
20260507161624 56 9 4.3 4.3 0.00 0.18 0.18 37 1016.1
20260507161121 57 20 0.0 3.5 0.00 0.18 0.18 36 1016.3
20260507160617 57 161 1.7 3.5 0.00 0.18 0.18 42 1016.3
20260507160114 57 307 0.0 2.6 0.00 0.18 0.18 38 1016.5
20260507155609 57 291 0.9 2.6 0.00 0.18 0.18 37 1016.3
20260507155106 57 288 0.9 2.6 0.00 0.18 0.18 39 1016.4
20260507154603 56 240 2.6 5.2 0.00 0.18 0.18 39 1016.6
20260507154100 55 49 1.7 5.2 0.00 0.18 0.18 39 1016.8
20260507153557 55 341 2.6 5.2 0.00 0.18 0.18 40 1016.7
20260507153053 55 273 2.6 3.5 0.00 0.18 0.18 41 1016.6
20260507152549 56 300 1.7 3.5 0.00 0.18 0.18 47 1016.8
20260507152046 55 341 2.6 5.2 0.00 0.18 0.18 42 1016.9
20260507151542 55 349 1.7 3.5 0.00 0.18 0.18 39 1016.9
20260507151039 55 234 1.7 5.2 0.00 0.18 0.18 42 1016.8
20260507150536 54 296 1.7 5.2 0.00 0.18 0.18 41 1016.8
20260507150028 53 353 2.6 6.1 0.00 0.18 0.18 41 1016.8
20260507145527 53 356 2.6 4.3 0.00 0.18 0.18 47 1016.9
20260507145026 54 239 2.6 6.1 0.00 0.18 0.18 55 1016.8
20260507144522 53 226 0.9 3.5 0.00 0.18 0.18 49 1016.7
20260507144020 52 86 1.7 5.2 0.00 0.18 0.18 43 1016.8
20260507143517 52 120 0.9 4.3 0.00 0.18 0.18 49 1016.8
20260507143014 52 232 2.6 4.3 0.00 0.18 0.18 50 1016.7
20260507142509 52 350 5.2 5.2 0.00 0.18 0.18 52 1016.9
20260507142007 51 3 3.5 5.2 0.00 0.18 0.18 49 1016.9
20260507141502 52 262 1.7 2.6 0.00 0.18 0.18 54 1016.9
20260507140959 52 29 1.7 7.8 0.00 0.18 0.18 51 1016.9
20260507140456 51 214 0.0 2.6 0.00 0.18 0.18 54 1017.0
20260507135953 51 12 5.2 7.0 0.00 0.18 0.18 53 1016.8
20260507135450 50 306 0.0 6.1 0.00 0.18 0.18 56 1017.0
20260507134947 51 208 1.7 3.5 0.00 0.18 0.18 71 1016.8
20260507134444 50 228 1.7 3.5 0.00 0.18 0.18 72 1016.9
20260507133940 49 252 2.6 4.3 0.00 0.18 0.18 75 1016.9
20260507133436 50 286 0.0 1.7 0.00 0.18 0.18 81 1016.9
20260507132935 50 320 0.0 5.2 0.00 0.18 0.18 77 1016.7
20260507132430 50 190 3.5 3.5 0.00 0.18 0.18 82 1016.7
20260507131927 50 231 1.7 3.5 0.00 0.18 0.18 83 1016.9
20260507131424 50 300 1.7 3.5 0.00 0.18 0.18 84 1016.9
20260507130921 50 325 1.7 3.5 0.00 0.18 0.18 86 1016.9
20260507130418 50 351 0.9 2.6 0.00 0.18 0.18 84 1016.8
20260507125917 49 311 0.0 4.3 0.00 0.18 0.18 82 1016.6
20260507125414 49 10 0.9 4.3 0.00 0.18 0.18 84 1016.7
20260507124912 48 9 2.6 3.5 0.00 0.18 0.18 84 1016.6
20260507124407 48 111 0.0 4.3 0.00 0.18 0.18 86 1016.6
20260507123906 47 336 3.5 4.3 0.00 0.18 0.18 87 1016.7
20260507123403 47 108 1.7 7.0 0.00 0.18 0.18 87 1016.8
20260507122859 47 187 0.9 6.1 0.00 0.18 0.18 92 1016.8
20260507122355 47 209 1.7 8.7 0.00 0.18 0.18 92 1016.6
20260507121851 48 8 0.9 2.6 0.00 0.18 0.18 95 1016.8
20260507121346 48 240 0.9 2.6 0.00 0.18 0.18 95 1016.7
20260507120843 47 67 1.7 1.7 0.00 0.18 0.18 95 1016.7
20260507120340 47 270 2.6 3.5 0.00 0.18 0.18 95 1016.7
20260507115836 47 231 0.0 2.6 0.00 0.18 0.18 96 1016.5
20260507115332 46 282 0.0 2.6 0.00 0.18 0.18 96 1016.5
20260507114828 46 192 0.9 2.6 0.00 0.18 0.18 97 1016.4
20260507114325 46 267 2.6 3.5 0.00 0.18 0.18 97 1016.5
20260507113823 46 288 1.7 3.5 0.00 0.18 0.18 97 1016.6
20260507113319 46 285 1.7 2.6 0.00 0.18 0.18 98 1016.5
20260507112817 46 200 0.9 2.6 0.00 0.18 0.18 98 1016.4
20260507112314 47 235 1.7 2.6 0.00 0.18 0.18 98 1016.5
20260507111812 47 222 0.0 1.7 0.00 0.18 0.18 98 1016.5
20260507111308 47 254 0.0 1.7 0.00 0.18 0.18 98 1016.4
20260507110804 47 266 0.9 1.7 0.00 0.18 0.18 97 1016.2
20260507110300 47 242 0.9 2.6 0.00 0.18 0.18 98 1016.2
20260507105758 47 291 0.9 3.5 0.00 0.18 0.18 98 1016.1
20260507105254 47 223 1.7 3.5 0.00 0.18 0.18 99 1016.1
20260507104751 47 156 0.9 2.6 0.00 0.18 0.18 99 1016.0
20260507104248 47 178 0.9 3.5 0.00 0.18 0.18 99 1016.0
20260507103744 47 192 0.9 2.6 0.00 0.18 0.18 99 1015.9
20260507103240 47 236 1.7 3.5 0.00 0.18 0.18 99 1015.8
20260507102736 46 300 1.7 3.5 0.00 0.18 0.18 99 1015.7
20260507102233 47 268 0.0 2.6 0.00 0.18 0.18 99 1015.6
20260507101729 47 212 0.9 2.6 0.00 0.18 0.18 99 1015.4
20260507101225 47 302 0.0 2.6 0.00 0.18 0.18 99 1015.8
20260507100722 47 235 0.9 2.6 0.00 0.18 0.18 99 1015.6
20260507100220 47 280 0.9 3.5 0.00 0.18 0.18 99 1015.6
20260507095718 47 261 1.7 2.6 0.00 0.18 0.18 99 1015.4
20260507095214 47 147 0.9 2.6 0.00 0.18 0.18 99 1015.2
20260507094711 47 123 0.0 1.7 0.00 0.18 0.18 99 1015.2
20260507094208 47 233 2.6 2.6 0.00 0.18 0.18 99 1015.3
20260507093705 47 155 0.9 2.6 0.00 0.18 0.18 99 1015.0
20260507093204 47 115 1.7 2.6 0.00 0.18 0.18 99 1015.1
20260507092700 48 153 0.9 3.5 0.00 0.18 0.18 99 1015.1
20260507092157 47 325 1.7 2.6 0.02 0.18 0.18 99 1015.0
20260507091653 48 159 1.7 2.6 0.02 0.18 0.18 99 1015.1
20260507091150 48 267 0.0 1.7 0.00 0.17 0.17 99 1014.9
20260507090645 48 229 0.9 2.6 0.00 0.17 0.17 99 1015.0
20260507090143 48 67 1.7 1.7 0.00 0.17 0.17 99 1015.0
20260507085639 47 199 0.9 1.7 0.00 0.17 0.17 99 1015.4
20260507085136 48 247 1.7 1.7 0.00 0.17 0.17 99 1015.1
20260507084633 48 349 1.7 1.7 0.00 0.17 0.17 99 1015.1
20260507084130 48 215 1.7 2.6 0.02 0.17 0.17 99 1015.4
20260507083626 47 247 4.3 4.3 0.05 0.17 0.17 99 1014.9
20260507083123 47 350 1.7 3.5 0.05 0.17 0.17 99 1014.4
20260507082619 47 333 1.7 1.7 0.02 0.16 0.16 99 1015.0
20260507082116 47 309 1.7 3.5 0.00 0.16 0.16 99 1015.4
20260507081613 47 314 1.7 3.5 0.05 0.16 0.16 99 1015.2
20260507081109 48 299 0.9 1.7 0.05 0.15 0.15 99 1015.1
20260507080606 48 259 0.9 1.7 0.07 0.15 0.15 99 1015.3
20260507075557 48 287 0.9 2.6 0.05 0.14 0.14 99 1015.4
20260507075053 48 222 1.7 2.6 0.00 0.13 0.13 99 1015.8
20260507074550 48 303 0.9 1.7 0.02 0.13 0.13 99 1015.1
20260507074049 48 304 2.6 2.6 0.05 0.13 0.13 99 1015.4
20260507073544 48 308 1.7 2.6 0.05 0.13 0.13 99 1015.1
20260507073041 48 298 1.7 1.7 0.07 0.12 0.12 99 1015.3
20260507072539 48 219 0.0 2.6 0.07 0.11 0.11 99 1015.2
20260507072036 48 318 0.0 1.7 0.12 0.11 0.11 99 1015.3
20260507071533 48 252 2.6 2.6 0.07 0.10 0.10 99 1015.6
20260507071030 49 312 1.7 2.6 0.05 0.09 0.09 99 1015.1
20260507070527 48 244 2.6 3.5 0.12 0.09 0.09 99 1015.7
20260507070024 48 168 0.0 3.5 0.12 0.08 0.08 98 1014.8
20260507065520 48 301 1.7 3.5 0.07 0.07 0.07 98 1014.9
20260507065017 48 269 1.7 2.6 0.07 0.06 0.06 98 1014.8
20260507064515 49 9 0.0 1.7 0.12 0.06 0.06 98 1015.1
20260507064014 49 283 0.9 1.7 0.09 0.05 0.05 98 1015.2
20260507063510 49 1 0.9 2.6 0.07 0.04 0.04 97 1015.0
20260507063008 49 163 0.9 1.7 0.07 0.03 0.03 97 1014.9
20260507062504 49 288 0.9 1.7 0.07 0.03 0.03 97 1015.0
20260507062002 49 230 0.9 1.7 0.09 0.02 0.02 95 1015.1
20260507061459 49 243 0.0 1.7 0.07 0.02 0.02 95 1015.1
20260507060957 50 235 0.0 1.7 0.00 0.00 0.00 95 1014.9
20260507060454 50 357 0.0 1.7 0.02 0.00 0.00 93 1014.1
20260507055950 50 288 0.9 2.6 0.02 0.00 0.00 93 1014.6
20260507055446 50 332 1.7 3.5 0.00 0.00 0.00 90 1014.4
20260507054943 50 212 1.7 1.7 0.00 0.00 0.00 91 1014.3
20260507054439 50 233 0.9 3.5 0.00 0.00 0.00 90 1014.4
20260507053936 51 307 1.7 3.5 0.00 0.00 0.00 89 1014.7
20260507053434 51 213 1.7 3.5 0.00 0.00 0.00 90 1014.5
20260507052932 51 233 0.9 2.6 0.00 0.00 0.00 90 1014.6
20260507052429 51 213 0.9 1.7 0.00 0.00 0.00 90 1014.7
20260507051926 51 201 1.7 1.7 0.00 0.00 0.00 91 1014.7
20260507051424 51 189 0.9 2.6 0.00 0.00 0.00 90 1014.7
20260507050921 51 263 0.9 3.5 0.00 0.00 0.00 88 1014.5
20260507050417 51 132 0.0 3.5 0.00 0.00 0.00 91 1014.7
20260507045914 50 347 3.5 3.5 0.00 0.00 0.00 89 1014.8
20260507045410 51 183 1.7 2.6 0.00 0.00 0.00 92 1014.9
20260507044902 51 251 0.0 1.7 0.00 0.00 0.00 91 1014.8
20260507044358 51 17 0.0 1.7 0.00 0.00 0.00 92 1014.6
20260507043854 51 286 0.9 1.7 0.00 0.00 0.00 91 1014.9
20260507043351 51 274 0.9 2.6 0.00 0.00 0.00 92 1015.2
20260507042847 51 106 0.0 2.6 0.00 0.00 0.00 93 1015.1
20260507042343 51 211 2.6 2.6 0.00 0.00 0.00 93 1015.2
20260507041840 51 205 2.6 3.5 0.00 0.00 0.00 94 1015.2
20260507041337 52 334 0.9 1.7 0.00 0.00 0.00 95 1015.0
20260507040834 51 27 0.9 1.7 0.00 0.00 0.00 94 1015.1
20260507040330 52 159 0.0 2.6 0.00 0.00 0.00 94 1014.9
20260507035826 51 332 0.0 1.7 0.00 0.07 0.07 93 1014.6
20260507035322 52 97 0.9 2.6 0.00 0.07 0.07 93 1014.5
20260507034820 52 26 2.6 2.6 0.00 0.07 0.07 94 1014.7
20260507034316 52 91 2.6 3.5 0.00 0.07 0.07 94 1014.8
20260507033814 52 159 0.0 3.5 0.00 0.07 0.07 95 1014.7
20260507033312 53 118 0.0 2.6 0.00 0.07 0.07 96 1014.7
20260507032809 53 20 1.7 3.5 0.00 0.07 0.07 96 1014.8
20260507032306 53 28 3.5 3.5 0.00 0.07 0.07 97 1014.8
20260507031801 53 65 1.7 3.5 0.00 0.07 0.07 97 1014.8
20260507031258 53 43 1.7 2.6 0.00 0.07 0.07 97 1014.9
20260507030755 55 172 0.9 3.5 0.00 0.07 0.07 99 1014.9
20260507030252 55 17 0.9 3.5 0.00 0.07 0.07 99 1015.0
20260507025749 58 70 0.9 0.9 0.00 0.07 0.07 99 1014.7
20260507025246 58 280 0.0 1.7 0.00 0.07 0.07 99 1014.7
20260507024745 58 171 0.9 2.6 0.00 0.07 0.07 99 1014.7
20260507024241 58 131 1.7 3.5 0.00 0.07 0.07 99 1014.5
20260507023737 58 162 1.7 3.5 0.00 0.07 0.07 99 1014.7
20260507023234 58 169 2.6 2.6 0.00 0.07 0.07 99 1014.7
20260507022731 59 173 1.7 1.7 0.00 0.07 0.07 99 1014.6
20260507022227 58 267 1.7 2.6 0.00 0.07 0.07 99 1014.7
20260507021724 59 211 0.9 2.6 0.00 0.07 0.07 99 1014.6
20260507021219 59 271 0.0 1.7 0.00 0.07 0.07 99 1014.4
20260507020718 58 264 0.0 0.9 0.00 0.07 0.07 99 1014.6
20260507020214 59 270 0.0 1.7 0.00 0.07 0.07 99 1014.5
20260507015712 59 298 0.9 1.7 0.02 0.07 0.07 99 1014.3
20260507015209 59 162 0.9 2.6 0.05 0.07 0.07 99 1014.3
20260507014705 59 222 1.7 2.6 0.02 0.07 0.07 99 1014.5
20260507014201 59 135 0.9 1.7 0.00 0.06 0.06 99 1014.4
20260507013658 59 171 1.7 1.7 0.00 0.06 0.06 99 1014.5
20260507013156 59 304 0.0 1.7 0.00 0.06 0.06 99 1014.4
20260507012653 59 126 0.0 1.7 0.00 0.06 0.06 99 1014.4
20260507012148 59 167 2.6 2.6 0.00 0.06 0.06 99 1014.4
20260507011647 59 195 1.7 2.6 0.00 0.06 0.06 99 1014.3
20260507011142 59 298 0.0 2.6 0.00 0.06 0.06 99 1014.2
20260507010637 59 180 1.7 1.7 0.00 0.06 0.06 99 1014.2
20260507010133 59 183 0.9 1.7 0.00 0.06 0.06 99 1014.1
20260507005631 59 164 1.7 1.7 0.00 0.06 0.06 99 1014.2
20260507005127 59 180 1.7 2.6 0.00 0.06 0.06 99 1014.1
20260507004624 59 121 0.9 2.6 0.00 0.06 0.06 99 1013.9
20260507004122 59 176 1.7 2.6 0.00 0.06 0.06 99 1013.9
20260507003618 59 102 1.7 3.5 0.00 0.06 0.06 99 1013.9
20260507003113 59 157 0.9 2.6 0.00 0.06 0.06 99 1014.1
20260507002609 59 155 1.7 2.6 0.00 0.06 0.06 99 1013.9
20260507002105 59 228 3.5 3.5 0.00 0.06 0.06 99 1013.9
20260507001602 59 165 1.7 2.6 0.00 0.06 0.06 99 1013.7
20260507001100 59 186 0.9 2.6 0.00 0.06 0.06 99 1014.1
20260507000556 59 171 3.5 3.5 0.00 0.06 0.06 99 1013.8
20260507000051 59 175 2.6 4.3 0.00 0.06 0.06 99 1013.7
20260506235549 59 67 0.9 3.5 0.00 0.06 0.06 99 1013.5
20260506235044 59 124 0.0 3.5 0.00 0.06 0.06 99 1013.7
20260506234542 59 135 1.7 3.5 0.00 0.06 0.06 99 1013.5
20260506234039 59 197 2.6 3.5 0.00 0.06 0.06 99 1013.6
20260506233536 59 126 0.9 2.6 0.00 0.06 0.06 99 1013.8
20260506233027 59 8 1.7 3.5 0.00 0.06 0.06 99 1013.7
20260506232523 59 151 0.0 5.2 0.00 0.06 0.06 99 1013.7
20260506232013 59 177 0.0 2.6 0.00 0.06 0.06 99 1013.8
20260506231511 59 217 4.3 4.3 0.00 0.06 0.06 99 1013.8
20260506231009 59 215 2.6 3.5 0.00 0.06 0.06 99 1013.5
20260506230504 59 229 2.6 6.1 0.00 0.06 0.06 99 1013.7
20260506230002 59 173 1.7 1.7 0.00 0.06 0.06 99 1013.6
20260506225459 59 265 3.5 3.5 0.00 0.06 0.06 99 1013.5
20260506224955 59 183 1.7 3.5 0.00 0.06 0.06 99 1013.5
20260506224452 59 205 2.6 2.6 0.00 0.06 0.06 99 1013.2
20260506223949 59 76 1.7 1.7 0.00 0.06 0.06 99 1013.4
20260506223445 59 163 0.9 4.3 0.00 0.06 0.06 99 1013.3
20260506222942 59 111 0.9 3.5 0.00 0.06 0.06 99 1013.2
20260506222438 59 239 1.7 3.5 0.00 0.06 0.06 99 1013.2
20260506221934 59 228 2.6 3.5 0.00 0.06 0.06 99 1013.3
20260506221431 59 189 1.7 2.6 0.00 0.06 0.06 99 1013.2
20260506220930 59 225 1.7 3.5 0.00 0.06 0.06 99 1013.2
20260506220425 59 181 0.9 1.7 0.00 0.06 0.06 99 1013.3
20260506215921 59 236 1.7 2.6 0.00 0.06 0.06 99 1013.1
20260506215418 59 224 1.7 3.5 0.00 0.06 0.06 99 1013.0
20260506214913 59 211 2.6 3.5 0.00 0.06 0.06 99 1012.9
20260506214411 59 212 2.6 3.5 0.00 0.06 0.06 99 1012.9
20260506213908 59 251 1.7 3.5 0.00 0.06 0.06 99 1013.0
20260506213406 59 69 1.7 3.5 0.00 0.06 0.06 99 1012.9
20260506212903 58 223 3.5 3.5 0.00 0.06 0.06 99 1013.1
20260506212358 58 216 1.7 2.6 0.00 0.06 0.06 99 1013.0
20260506211853 58 196 1.7 2.6 0.00 0.06 0.06 99 1012.9
20260506211350 58 190 0.9 2.6 0.00 0.06 0.06 99 1012.9
20260506210847 58 211 0.0 2.6 0.00 0.06 0.06 99 1013.0